Weather Roundup
Issued by NWS Corpus Christi, TX

Home | Current Version | Previous Version | Text Only | Print | Product List | Glossary On
Versions: 1 2 3 4 5 6 7 8 9 10 11 12 13 14 15 16 17 18 19 20 21 22 23 24 25 26 27 28 29 30 31 32 33 34 35 36 37 38 39 40 41 42 43 44 45 46 47 48 49 50
000
ASUS44 KCRP 240110
HRRCRP

SOUTH TEXAS REGIONAL WEATHER ROUNDUP
NATIONAL WEATHER SERVICE CORPUS CHRISTI TX
800 PM CDT WED APR 23 2014


TXZ229>244-240200-
...CORPUS CHRISTI AREA OBSERVATIONS...

CITY           SKY/WX    TMP DP  RH WIND       PRES   REMARKS
CORPUS CHRISTI PTCLDY    75  66  73 SE23G29   29.80R
NAS CORPUS CHR MOCLDY    73  69  87 SE17G25   29.81R
ROCKPORT       CLOUDY    73  68  84 SE17      29.81F
KINGSVILLE NAS PTCLDY    76  66  71 SE18G28   29.79R
ALICE          CLEAR     76  62  62 SE18      29.78R
FALFURRIAS     PTCLDY    78  66  64 SE17G23   29.77R
$$

...VICTORIA AREA OBSERVATIONS...

CITY           SKY/WX    TMP DP  RH WIND       PRES   REMARKS
VICTORIA       PTCLDY    74  66  76 SE17      29.83R
BEEVILLE       FAIR      75  64  67 SE17G25   29.80R
PLEASANTON     CLEAR     80  60  50 SE14G21   29.76R
SAN ANTONIO    MOCLDY    82  62  50 SE20G28   29.77R
$$

...LAREDO AREA OBSERVATIONS...

CITY           SKY/WX    TMP DP  RH WIND       PRES   REMARKS
LAREDO         CLEAR     87  64  46 SE14      29.72R
COTULLA        CLEAR     85  63  47 SE23G33   29.71R
DEL RIO        LGT RAIN  80  63  55 S13       29.66R
MCALLEN        PTCLDY    78  60  53 SE17      29.76F
HEBBRONVILLE   CLEAR     82  62  50 SE20G26   29.75R
$$

...OTHER TEXAS OBSERVATIONS...

CITY           SKY/WX    TMP DP  RH WIND       PRES   REMARKS
BROWNSVILLE    PTCLDY    75  67  76 SE17G24   29.82R
HOUSTON        PTCLDY    75  64  68 S12       29.84R
COL. STATION   CLEAR     79  61  53 S13       29.80R
AUSTIN         MOCLDY    79  63  57 SE16G25   29.76S
WACO           PTCLDY    78  60  53 SE14G24   29.74S
FORT WORTH     MOCLDY    80  57  45 SE16      29.71S
WICHITA FALLS  CLOUDY    80  56  43 SE17      29.65R
LUBBOCK        MOCLDY    84  22  10 SW25G31   29.62S
EL PASO        FAIR      82  17   9 W26G35    29.75R
$$

...MARINE OBSERVATIONS...

STATION/POSITION TIME  SKY/WX   TEMP    WIND        PRES    VSBY  WAVE   SWELL
                                AIR SEA DIR/SP/G                  HT/PER HT/PER
                 (UTC)          (F)     (DEG/KT/KT) (MB)    (MI)  (FT/S) (FT/S)
PORT ARANSAS     0100            71 77  120/ 17/ 20 1009.9R
BUOY 90 E PORT A NOT AVBL
BUOY 45 SE BAFFI 0100            72 72  130/ 14/ 16 1009.6S         2/ 4
BUOY 200 E PT IS NOT AVBL
BUOY 15 E GALVES 0100            71 72  150/ 12/ 14 1011.4R         1/ 3
$$


USA.gov is the U.S. government's official web portal to all federal, state and local government web resources and services.